Regional Weather Roundup
Issued by NWS

Home | Current Version | Previous Version | Text Only | Print | Product List | Glossary Off
Versions: 1 2 3 4 5 6 7 8 9 10 11 12 13 14 15 16 17 18 19 20 21 22 23 24 25 26 27

000
ASUS45 KSLC 191010
RWRUT

UTAH REGIONAL WEATHER ROUNDUP
NATIONAL WEATHER SERVICE SALT LAKE CITY UT
400 AM MDT SAT APR 19 2014

UTZ001>011-023>025-191100-

NORTHERN UTAH

CITY           SKY/WX    TMP DP  RH WIND       PRES   REMARKS
HILL AFB       MOCLDY    50  37  60 SE7       29.97F
LOGAN          PTCLDY    39  35  86 CALM      30.01F
OGDEN            N/A     48  39  71 NW7       29.96F
PROVO AIRPORT    N/A     46  39  76 SE5       29.99S
SALT LAKE CITY MOCLDY    50  45  83 N3        29.97S
VERNAL         CLOUDY    54  33  45 N7        29.98R
WENDOVER       MOCLDY    52  36  54 S3        29.98S
HEBER CITY       N/A     34  30  86 CALM      30.01S
WEST JORDAN    MOCLDY    48  39  71 CALM      29.98S

$$

UTZ012>022-026-027-191100-

SOUTHERN UTAH

CITY           SKY/WX    TMP DP  RH WIND       PRES   REMARKS
BRYCE CANYON   CLOUDY    38  28  67 CALM      30.11F
CEDAR CITY       N/A     48  28  46 S8        30.02R
MILFORD        CLOUDY    45  28  51 SE9       29.98F
MOAB/CYNLANDS  CLOUDY    59  37  44 W6        30.00R
PRICE            N/A     54  26  34 E6        30.00S
ST GEORGE        N/A     63  34  34 SE10      29.96R
KANAB          CLOUDY    54  37  54 SW10      30.07S

$$

REGIONAL REPORTS     COLORADO/ARIZONA

CITY           SKY/WX    TMP DP  RH WIND       PRES   REMARKS
CRAIG, CO      PTCLDY    37  32  82 CALM      30.05R
GRAND JUNCTION CLOUDY    55  36  48 N6        30.01S
RIFLE          CLOUDY    50  34  54 CALM      30.04R
MONTROSE       CLOUDY    56  33  42 W9        30.07R
CORTEZ         LGT RAIN  47  46  97 E7        30.12S
PAGE, AZ       CLOUDY    58  39  49 S9        30.02R
GRAND CANYON   CLOUDY    42  40  92 CALM      30.11S
KINGMAN        CLOUDY    56  46  69 SE9       29.98F
FLAGSTAFF        N/A     33  31  92 CALM      30.10F

$$

REGIONAL REPORTS    NEVADA/IDAHO/WYOMING

CITY           SKY/WX    TMP DP  RH WIND       PRES   REMARKS
LAS VEGAS, NV    N/A     67  38  34 S12       29.86S
ELY            MOCLDY    43  23  45 E7        30.02S
ELKO             N/A     36  24  62 CALM      29.99R
POCATELLO, ID  CLEAR     33  22  63 SE6       30.01S WCI  28
BURLEY           N/A     34  28  79 SW6       29.99S WCI  29
EVANSTON, WY   PTCLDY    38  31  76 N7        30.06S WCI  33
ROCK SPRINGS   MOCLDY    41  30  65 W13       30.04S

$$



USA.gov is the U.S. government's official web portal to all federal, state and local government web resources and services.